Date String (YYYY-MM-DD hh:mm:ss) UTC,Instrument flags,Ambient pressure (hPa),Sample flow (lpm),Bypass flow (lpm),Sample temperature (°C),Ambient temperature (°C),ASC tube jacket temperature (°C),LED temperature (°C),Box temperature (°C),Sample RH (%),Span deviation,Mass concentration (μg/m³),Mass concentration (μg/m³),Mass concentration (μg/m³)
DateTimeUTC,F1_M11,P_M11,Q1_M11,Q2_M11,T1_M11,T2_M11,T3_M11,T4_M11,T5_M11,U1_M11,ZSPAN_M11,X0_M11,X2_M11,X1_M11
2023-05-12 06:00:00,,0826.2,5.01,0.00,26.6,24.8,00.0,35.1,28.3,28.9,0000.0,0001.04,0000.56,0000.33
2023-05-12 06:01:00,,0826.2,4.99,0.00,26.6,24.8,00.0,35.1,28.3,28.8,0000.0,0001.07,0000.57,0000.32
2023-05-12 06:02:00,,0826.2,5.00,0.00,26.6,24.8,00.0,35.1,28.3,28.8,0000.0,0001.07,0000.56,0000.31
2023-05-12 06:03:00,,0826.2,5.00,0.00,26.6,24.8,00.0,35.1,28.3,28.9,0000.0,0000.90,0000.51,0000.30
2023-05-12 06:04:00,,0826.2,5.00,0.00,26.6,24.7,00.0,35.1,28.3,28.8,0000.0,0000.94,0000.51,0000.29
2023-05-12 06:05:00,,0826.2,5.01,0.00,26.6,24.7,00.0,35.1,28.2,28.8,0000.0,0001.03,0000.52,0000.28
2023-05-12 06:06:00,,0826.2,5.00,0.00,26.6,24.7,00.0,35.1,28.3,28.9,0000.0,0000.96,0000.48,0000.27
2023-05-12 06:07:00,,0826.2,5.00,0.00,26.6,24.7,00.0,35.0,28.3,29.0,0000.0,0000.91,0000.46,0000.26
2023-05-12 06:08:00,,0826.2,5.00,0.00,26.6,24.7,00.0,35.0,28.2,28.7,0000.0,0000.88,0000.44,0000.25
2023-05-12 06:09:00,,0826.2,5.00,0.00,26.5,24.6,00.0,35.0,28.2,28.8,0000.0,0000.87,0000.43,0000.25
2023-05-12 06:10:00,,0826.2,5.00,0.00,26.5,24.5,00.0,35.0,28.1,28.9,0000.0,0000.81,0000.41,0000.24
2023-05-12 06:11:00,,0826.2,5.00,0.00,26.5,24.5,00.0,35.0,28.1,29.2,0000.0,0000.77,0000.40,0000.24
2023-05-12 06:12:00,,0826.2,5.00,0.00,26.5,24.5,00.0,35.0,28.1,29.3,0000.0,0000.82,0000.43,0000.25
2023-05-12 06:13:00,,0826.2,5.01,0.00,26.4,24.5,00.0,35.0,28.1,29.4,0000.0,0000.88,0000.46,0000.26
2023-05-12 06:14:00,,0826.2,4.99,0.00,26.4,24.5,00.0,35.0,28.1,29.4,0000.0,0000.92,0000.49,0000.27
2023-05-12 06:15:00,,0826.2,5.00,0.00,26.4,24.6,00.0,35.0,28.1,29.4,0000.0,0000.92,0000.48,0000.28
2023-05-12 06:16:00,,0826.3,5.00,0.00,26.5,24.7,00.0,35.0,28.2,29.1,0000.0,0000.86,0000.47,0000.28
2023-05-12 06:17:00,,0826.2,4.99,0.00,26.5,24.7,00.0,35.0,28.2,29.1,0000.0,0000.86,0000.46,0000.27
2023-05-12 06:18:00,,0826.2,5.00,0.00,26.5,24.8,00.0,35.0,28.2,29.2,0000.0,0000.93,0000.47,0000.27
2023-05-12 06:19:00,,0826.2,5.00,0.00,26.5,24.9,00.0,35.0,28.3,29.2,0000.0,0000.95,0000.48,0000.28
2023-05-12 06:20:00,,0826.2,5.00,0.00,26.5,24.9,00.0,35.0,28.3,29.2,0000.0,0001.00,0000.50,0000.28
2023-05-12 06:21:00,,0826.2,5.01,0.00,26.5,24.9,00.0,35.0,28.3,29.2,0000.0,0001.04,0000.51,0000.29
2023-05-12 06:22:00,,0826.3,5.01,0.00,26.5,24.9,00.0,35.0,28.3,29.1,0000.0,0001.06,0000.52,0000.29
2023-05-12 06:23:00,,0826.3,5.00,0.00,26.6,24.9,00.0,35.0,28.3,29.1,0000.0,0001.00,0000.49,0000.27
2023-05-12 06:24:00,,0826.4,5.00,0.00,26.6,24.9,00.0,35.0,28.3,29.2,0000.0,0000.98,0000.48,0000.27
2023-05-12 06:25:00,,0826.4,5.00,0.00,26.6,25.0,00.0,35.0,28.4,29.2,0000.0,0000.97,0000.47,0000.26
2023-05-12 06:26:00,,0826.4,5.00,0.00,26.6,25.1,00.0,35.0,28.4,29.1,0000.0,0001.07,0000.47,0000.26
2023-05-12 06:27:00,,0826.4,5.00,0.00,26.6,25.1,00.0,35.0,28.4,29.1,0000.0,0001.05,0000.46,0000.25
2023-05-12 06:28:00,,0826.4,5.00,0.00,26.6,25.2,00.0,35.0,28.4,29.0,0000.0,0001.02,0000.46,0000.25
2023-05-12 06:29:00,,0826.4,5.01,0.00,26.7,25.2,00.0,35.0,28.4,28.9,0000.0,0001.06,0000.46,0000.26
2023-05-12 06:30:00,,0826.3,5.00,0.00,26.7,25.2,00.0,35.0,28.4,28.7,0000.0,0001.25,0000.50,0000.25
2023-05-12 06:31:00,,0826.3,5.01,0.00,26.7,25.2,00.0,35.0,28.5,28.8,0000.0,0001.30,0000.51,0000.25
2023-05-12 06:32:00,,0826.4,5.00,0.00,26.7,25.2,00.0,35.0,28.5,28.7,0000.0,0001.34,0000.52,0000.25
2023-05-12 06:33:00,,0826.4,5.00,0.00,26.7,25.2,00.0,35.0,28.5,28.6,0000.0,0001.37,0000.52,0000.24
2023-05-12 06:34:00,,0826.4,5.00,0.00,26.7,25.2,00.0,35.0,28.5,28.5,0000.0,0001.35,0000.50,0000.23
2023-05-12 06:35:00,,0826.4,4.99,0.00,26.7,25.2,00.0,35.0,28.5,28.4,0000.0,0001.32,0000.48,0000.22
2023-05-12 06:36:00,,0826.4,4.99,0.00,26.7,25.2,00.0,35.0,28.5,28.4,0000.0,0001.34,0000.49,0000.21
2023-05-12 06:37:00,,0826.4,5.00,0.00,26.7,25.3,00.0,35.0,28.5,28.5,0000.0,0001.16,0000.46,0000.21
2023-05-12 06:38:00,,0826.4,5.00,0.00,26.7,25.3,00.0,35.1,28.5,28.4,0000.0,0001.82,0000.49,0000.21
2023-05-12 06:39:00,,0826.4,5.01,0.00,26.8,25.3,00.0,35.1,28.5,28.2,0000.0,0002.23,0000.51,0000.21
2023-05-12 06:40:00,,0826.4,5.00,0.00,26.8,25.3,00.0,35.1,28.5,28.0,0000.0,0002.19,0000.51,0000.20
2023-05-12 06:41:00,,0826.4,5.01,0.00,26.8,25.3,00.0,35.1,28.5,27.9,0000.0,0002.09,0000.50,0000.20
2023-05-12 06:42:00,,0826.4,4.99,0.00,26.8,25.3,00.0,35.1,28.5,28.1,0000.0,0002.02,0000.49,0000.20
2023-05-12 06:43:00,,0826.4,4.99,0.00,26.8,25.4,00.0,35.1,28.6,28.0,0000.0,0001.97,0000.47,0000.19
2023-05-12 06:44:00,,0826.3,4.99,0.00,26.8,25.4,00.0,35.1,28.6,28.0,0000.0,0001.96,0000.48,0000.20
2023-05-12 06:45:00,,0826.4,5.00,0.00,26.8,25.3,00.0,35.1,28.6,27.8,0000.0,0001.97,0000.48,0000.19
2023-05-12 06:46:00,,0826.4,4.99,0.00,26.8,25.3,00.0,35.1,28.6,27.9,0000.0,0001.96,0000.49,0000.20
2023-05-12 06:47:00,,0826.4,5.01,0.00,26.8,25.3,00.0,35.1,28.6,27.7,0000.0,0001.92,0000.47,0000.19
2023-05-12 06:48:00,,0826.4,5.00,0.00,26.8,25.3,00.0,35.2,28.6,27.7,0000.0,0002.08,0000.49,0000.19
2023-05-12 06:49:00,,0826.4,5.00,0.00,26.8,25.3,00.0,35.2,28.6,27.6,0000.0,0001.50,0000.47,0000.18
2023-05-12 06:50:00,,0826.4,5.01,0.00,26.8,25.3,00.0,35.2,28.6,27.4,0000.0,0001.03,0000.44,0000.18
2023-05-12 06:51:00,,0826.4,5.00,0.00,26.8,25.4,00.0,35.2,28.6,27.4,0000.0,0000.97,0000.42,0000.17
2023-05-12 06:52:00,,0826.4,5.00,0.00,26.8,25.4,00.0,35.2,28.6,27.4,0000.0,0000.88,0000.39,0000.17
2023-05-12 06:53:00,,0826.4,5.01,0.00,26.9,25.4,00.0,35.2,28.6,27.5,0000.0,0000.82,0000.37,0000.17
2023-05-12 06:54:00,,0826.4,4.99,0.00,26.9,25.4,00.0,35.2,28.6,27.6,0000.0,0000.93,0000.39,0000.17
2023-05-12 06:55:00,,0826.4,5.00,0.00,26.9,25.4,00.0,35.2,28.6,27.5,0000.0,0001.04,0000.41,0000.16
2023-05-12 06:56:00,,0826.4,5.00,0.00,26.9,25.4,00.0,35.2,28.6,27.3,0000.0,0001.20,0000.41,0000.16
2023-05-12 06:57:00,,0826.4,4.99,0.00,26.9,25.5,00.0,35.2,28.7,27.2,0000.0,0001.29,0000.41,0000.16
2023-05-12 06:58:00,,0826.4,5.00,0.00,26.9,25.5,00.0,35.2,28.7,27.2,0000.0,0001.33,0000.42,0000.16
2023-05-12 06:59:00,,0826.4,5.00,0.00,26.9,25.4,00.0,35.2,28.6,27.2,0000.0,0001.18,0000.40,0000.15
